| time (UTC) | temp F | wind direction | speed knots | gust knots | rain 1hr in | rain 24hr in | rain mn in | humidity % | barometer mb |
| 20260509091955 | 58 | 338 | 2.6 | 3.5 | 0.00 | 0.00 | 0.00 | ||
| 20260509091551 | 58 | 316 | 1.7 | 3.5 | 0.00 | 0.00 | 0.00 | ||
| 20260509091151 | 58 | 296 | 2.6 | 6.1 | 0.00 | 0.00 | 0.00 | ||
| 20260509090749 | 57 | 292 | 1.7 | 4.3 | 0.00 | 0.00 | 0.00 | ||
| 20260509090348 | 56 | 318 | 3.5 | 6.1 | 0.00 | 0.00 | 0.00 | ||
| 20260509085946 | 56 | 339 | 1.7 | 3.5 | 0.00 | 0.00 | 0.00 | ||
| 20260509085544 | 56 | 340 | 2.6 | 6.1 | 0.00 | 0.00 | 0.00 | ||
| 20260509085136 | 56 | 330 | 1.7 | 5.2 | 0.00 | 0.00 | 0.00 | ||
| 20260509084734 | 56 | 302 | 2.6 | 5.2 | 0.00 | 0.00 | 0.00 | ||
| 20260509084332 | 56 | 315 | 2.6 | 4.3 | 0.00 | 0.00 | 0.00 | ||
| 20260509083931 | 56 | 339 | 3.5 | 7.8 | 0.00 | 0.00 | 0.00 | ||
| 20260509083529 | 57 | 338 | 1.7 | 3.5 | 0.00 | 0.00 | 0.00 | ||
| 20260509083128 | 57 | 296 | 1.7 | 3.5 | 0.00 | 0.00 | 0.00 | ||
| 20260509082725 | 59 | 338 | 0.9 | 3.5 | 0.00 | 0.00 | 0.00 | ||
| 20260509082324 | 57 | 354 | 3.5 | 6.1 | 0.00 | 0.00 | 0.00 | ||
| 20260509081923 | 56 | 344 | 2.6 | 5.2 | 0.00 | 0.00 | 0.00 | ||
| 20260509081521 | 56 | 9 | 1.7 | 4.3 | 0.00 | 0.00 | 0.00 | ||
| 20260509081113 | 56 | 316 | 2.6 | 5.2 | 0.00 | 0.00 | 0.00 | ||
| 20260509080309 | 58 | 340 | 1.7 | 3.5 | 0.00 | 0.00 | 0.00 | ||
| 20260509075908 | 57 | 0 | 0.9 | 3.5 | 0.00 | 0.00 | 0.00 | ||
| 20260509075506 | 57 | 12 | 1.7 | 4.3 | 0.00 | 0.00 | 0.00 | ||
| 20260509075103 | 56 | 354 | 3.5 | 6.1 | 0.00 | 0.00 | 0.00 | ||
| 20260509074701 | 56 | 357 | 1.7 | 3.5 | 0.00 | 0.00 | 0.00 | ||
| 20260509074300 | 55 | 339 | 3.5 | 6.1 | 0.00 | 0.00 | 0.00 | ||
| 20260509073859 | 58 | 25 | 1.7 | 3.5 | 0.00 | 0.00 | 0.00 | ||
| 20260509073456 | 56 | 16 | 4.3 | 7.8 | 0.00 | 0.00 | 0.00 | ||
| 20260509073048 | 57 | 20 | 3.5 | 7.0 | 0.00 | 0.00 | 0.00 | ||
| 20260509072646 | 56 | 15 | 3.5 | 6.1 | 0.00 | 0.00 | 0.00 | ||
| 20260509072245 | 56 | 58 | 6.1 | 7.8 | 0.00 | 0.00 | 0.00 | ||
| 20260509071843 | 56 | 27 | 6.1 | 7.8 | 0.00 | 0.00 | 0.00 | ||
| 20260509071441 | 56 | 27 | 3.5 | 7.8 | 0.00 | 0.00 | 0.00 | ||
| 20260509071040 | 56 | 356 | 1.7 | 3.5 | 0.00 | 0.00 | 0.00 | ||
| 20260509070637 | 55 | 28 | 2.6 | 5.2 | 0.00 | 0.00 | 0.00 | ||
| 20260509070236 | 55 | 12 | 3.5 | 7.0 | 0.00 | 0.00 | 0.00 | ||
| 20260509065834 | 55 | 334 | 3.5 | 6.1 | 0.00 | 0.00 | 0.00 | ||
| 20260509065432 | 55 | 345 | 3.5 | 4.3 | 0.00 | 0.00 | 0.00 | ||
| 20260509065024 | 55 | 351 | 2.6 | 6.1 | 0.00 | 0.00 | 0.00 | ||
| 20260509064623 | 56 | 343 | 1.7 | 4.3 | 0.00 | 0.00 | 0.00 | ||
| 20260509064220 | 55 | 23 | 3.5 | 7.0 | 0.00 | 0.00 | 0.00 | ||
| 20260509063820 | 55 | 42 | 5.2 | 7.8 | 0.00 | 0.00 | 0.00 | ||
| 20260509063418 | 56 | 16 | 1.7 | 3.5 | 0.00 | 0.00 | 0.00 | ||
| 20260509063017 | 56 | 356 | 0.9 | 3.5 | 0.00 | 0.00 | 0.00 | ||
| 20260509062614 | 55 | 347 | 1.7 | 3.5 | 0.00 | 0.00 | 0.00 | ||
| 20260509062213 | 55 | 29 | 4.3 | 5.2 | 0.00 | 0.00 | 0.00 | ||
| 20260509061812 | 55 | 0 | 0.9 | 4.3 | 0.00 | 0.00 | 0.00 | ||
| 20260509061410 | 54 | 34 | 4.3 | 6.1 | 0.00 | 0.00 | 0.00 | ||
| 20260509061001 | 54 | 36 | 7.0 | 9.6 | 0.00 | 0.00 | 0.00 | ||
| 20260509060559 | 54 | 51 | 4.3 | 7.0 | 0.00 | 0.00 | 0.00 | ||
| 20260509060158 | 54 | 13 | 3.5 | 6.1 | 0.00 | 0.00 | 0.00 | ||
| 20260509055757 | 53 | 40 | 6.1 | 7.8 | 0.00 | 0.00 | 0.00 | ||
| 20260509055355 | 54 | 1 | 2.6 | 7.0 | 0.00 | 0.00 | 0.00 | ||
| 20260509054953 | 53 | 17 | 3.5 | 6.1 | 0.00 | 0.00 | 0.00 | ||
| 20260509054551 | 53 | 31 | 3.5 | 6.1 | 0.00 | 0.00 | 0.00 | ||
| 20260509054150 | 53 | 45 | 3.5 | 6.1 | 0.00 | 0.00 | 0.00 | ||
| 20260509053749 | 54 | 26 | 0.9 | 4.3 | 0.00 | 0.00 | 0.00 | ||
| 20260509053346 | 53 | 21 | 0.9 | 2.6 | 0.00 | 0.00 | 0.00 | ||
| 20260509052938 | 53 | 26 | 0.9 | 2.6 | 0.00 | 0.00 | 0.00 | ||
| 20260509052536 | 53 | 28 | 1.7 | 3.5 | 0.00 | 0.00 | 0.00 | ||
| 20260509052136 | 52 | 41 | 4.3 | 6.1 | 0.00 | 0.00 | 0.00 | ||
| 20260509051734 | 52 | 37 | 3.5 | 4.3 | 0.00 | 0.00 | 0.00 | ||
| 20260509051332 | 52 | 41 | 3.5 | 5.2 | 0.00 | 0.00 | 0.00 | ||
| 20260509050930 | 52 | 67 | 1.7 | 3.5 | 0.00 | 0.00 | 0.00 | ||
| 20260509050528 | 53 | 67 | 0.0 | 0.0 | 0.00 | 0.00 | 0.00 | ||
| 20260509050126 | 52 | 67 | 1.7 | 3.5 | 0.00 | 0.00 | 0.00 | ||
| 20260509045725 | 52 | 67 | 0.9 | 1.7 | 0.00 | 0.00 | 0.00 | ||
| 20260509045323 | 52 | 67 | 0.0 | 1.7 | 0.00 | 0.00 | 0.00 | ||
| 20260509044916 | 52 | 67 | 0.0 | 0.9 | 0.00 | 0.00 | 0.00 | ||
| 20260509044514 | 52 | 67 | 0.0 | 0.0 | 0.00 | 0.00 | 0.00 | ||
| 20260509044112 | 52 | 67 | 0.0 | 0.0 | 0.00 | 0.00 | 0.00 | ||
| 20260509043711 | 52 | 67 | 0.0 | 1.7 | 0.00 | 0.00 | 0.00 | ||
| 20260509043309 | 52 | 67 | 0.0 | 1.7 | 0.00 | 0.00 | 0.00 | ||
| 20260509042908 | 53 | 67 | 0.0 | 0.0 | 0.00 | 0.00 | 0.00 | ||
| 20260509042505 | 52 | 67 | 0.0 | 1.7 | 0.00 | 0.00 | 0.00 | ||
| 20260509042104 | 52 | 67 | 0.0 | 0.0 | 0.00 | 0.00 | 0.00 | ||
| 20260509041703 | 52 | 67 | 0.0 | 0.0 | 0.00 | 0.00 | 0.00 | ||
| 20260509041301 | 51 | 67 | 0.0 | 1.7 | 0.00 | 0.00 | 0.00 | ||
| 20260509040852 | 51 | 67 | 0.9 | 3.5 | 0.00 | 0.00 | 0.00 | ||
| 20260509040450 | 51 | 67 | 0.0 | 0.0 | 0.00 | 0.00 | 0.00 | ||
| 20260509040049 | 51 | 67 | 0.9 | 2.6 | 0.00 | 0.00 | 0.00 | ||
| 20260509035648 | 51 | 81 | 1.7 | 2.6 | 0.00 | 0.00 | 0.00 | ||
| 20260509035245 | 51 | 90 | 0.9 | 1.7 | 0.00 | 0.00 | 0.00 | ||
| 20260509034844 | 51 | 90 | 0.9 | 2.6 | 0.00 | 0.00 | 0.00 | ||
| 20260509034041 | 51 | 90 | 0.9 | 2.6 | 0.00 | 0.00 | 0.00 | ||
| 20260509033640 | 51 | 90 | 0.9 | 1.7 | 0.00 | 0.00 | 0.00 | ||
| 20260509033237 | 51 | 90 | 0.9 | 1.7 | 0.00 | 0.00 | 0.00 | ||
| 20260509032829 | 51 | 90 | 0.0 | 0.0 | 0.00 | 0.00 | 0.00 | ||
| 20260509032428 | 51 | 90 | 0.9 | 1.7 | 0.00 | 0.00 | 0.00 | ||
| 20260509032027 | 51 | 90 | 0.9 | 2.6 | 0.00 | 0.00 | 0.00 | ||
| 20260509031624 | 51 | 90 | 0.9 | 1.7 | 0.00 | 0.00 | 0.00 | ||
| 20260509031223 | 51 | 90 | 0.9 | 3.5 | 0.00 | 0.00 | 0.00 | ||
| 20260509030822 | 51 | 90 | 0.0 | 1.7 | 0.00 | 0.00 | 0.00 | ||
| 20260509030420 | 51 | 90 | 0.0 | 0.0 | 0.00 | 0.00 | 0.00 | ||
| 20260509030018 | 51 | 90 | 2.6 | 3.5 | 0.00 | 0.00 | 0.00 | ||
| 20260509025617 | 51 | 90 | 2.6 | 3.5 | 0.00 | 0.00 | 0.00 | ||
| 20260509025215 | 51 | 90 | 1.7 | 3.5 | 0.00 | 0.00 | 0.00 | ||
| 20260509024807 | 51 | 55 | 1.7 | 3.5 | 0.00 | 0.00 | 0.00 | ||
| 20260509024404 | 51 | 45 | 1.7 | 3.5 | 0.00 | 0.00 | 0.00 | ||
| 20260509024003 | 51 | 45 | 1.7 | 3.5 | 0.00 | 0.00 | 0.00 | ||
| 20260509023602 | 51 | 45 | 1.7 | 3.5 | 0.00 | 0.00 | 0.00 | ||
| 20260509023200 | 51 | 22 | 1.7 | 3.5 | 0.00 | 0.00 | 0.00 | ||
| 20260509022759 | 51 | 0 | 0.0 | 1.7 | 0.00 | 0.00 | 0.00 | ||
| 20260509022356 | 51 | 0 | 0.9 | 1.7 | 0.00 | 0.00 | 0.00 | ||
| 20260509021955 | 51 | 0 | 0.9 | 2.6 | 0.00 | 0.00 | 0.00 | ||
| 20260509021554 | 51 | 0 | 0.0 | 1.7 | 0.00 | 0.00 | 0.00 | ||
| 20260509021152 | 52 | 0 | 0.0 | 0.0 | 0.00 | 0.00 | 0.00 | ||
| 20260509020743 | 52 | 0 | 0.0 | 1.7 | 0.00 | 0.00 | 0.00 | ||
| 20260509020341 | 52 | 0 | 0.0 | 1.7 | 0.00 | 0.00 | 0.00 | ||
| 20260509015539 | 52 | 0 | 0.0 | 1.7 | 0.00 | 0.00 | 0.00 | ||
| 20260509015136 | 51 | 0 | 0.0 | 0.9 | 0.00 | 0.00 | 0.00 | ||
| 20260509014735 | 51 | 0 | 0.0 | 1.7 | 0.00 | 0.00 | 0.00 | ||
| 20260509014334 | 52 | 0 | 0.0 | 0.9 | 0.00 | 0.00 | 0.00 | ||
| 20260509013933 | 52 | 21 | 0.0 | 1.7 | 0.00 | 0.00 | 0.00 | ||
| 20260509013530 | 51 | 0 | 1.7 | 2.6 | 0.00 | 0.00 | 0.00 | ||
| 20260509013129 | 51 | 0 | 0.9 | 1.7 | 0.00 | 0.00 | 0.00 | ||
| 20260509012721 | 51 | 5 | 2.6 | 3.5 | 0.00 | 0.00 | 0.00 | ||
| 20260509012319 | 52 | 0 | 0.9 | 2.6 | 0.00 | 0.00 | 0.00 | ||
| 20260509011918 | 51 | 1 | 0.9 | 2.6 | 0.00 | 0.00 | 0.00 | ||
| 20260509011516 | 51 | 16 | 1.7 | 5.2 | 0.00 | 0.00 | 0.00 | ||
| 20260509011114 | 52 | 0 | 0.0 | 0.9 | 0.00 | 0.00 | 0.00 | ||
| 20260509010713 | 52 | 0 | 0.9 | 1.7 | 0.00 | 0.00 | 0.00 | ||
| 20260509010311 | 51 | 0 | 1.7 | 2.6 | 0.00 | 0.00 | 0.00 | ||
| 20260509005909 | 52 | 355 | 1.7 | 4.3 | 0.00 | 0.00 | 0.00 | ||
| 20260509005508 | 51 | 0 | 0.9 | 3.5 | 0.00 | 0.00 | 0.00 | ||
| 20260509005106 | 51 | 4 | 2.6 | 5.2 | 0.00 | 0.00 | 0.00 | ||
| 20260509004658 | 51 | 6 | 1.7 | 5.2 | 0.00 | 0.00 | 0.00 | ||
| 20260509004255 | 51 | 359 | 1.7 | 3.5 | 0.00 | 0.00 | 0.00 | ||
| 20260509003854 | 52 | 0 | 2.6 | 6.1 | 0.00 | 0.00 | 0.00 | ||
| 20260509003453 | 51 | 353 | 2.6 | 5.2 | 0.00 | 0.00 | 0.00 | ||
| 20260509003051 | 51 | 7 | 2.6 | 4.3 | 0.00 | 0.00 | 0.00 | ||
| 20260509002649 | 52 | 356 | 2.6 | 6.1 | 0.00 | 0.00 | 0.00 | ||
| 20260509002247 | 52 | 2 | 0.9 | 3.5 | 0.00 | 0.00 | 0.00 | ||
| 20260509001846 | 52 | 2 | 1.7 | 5.2 | 0.00 | 0.00 | 0.00 | ||
| 20260509001445 | 52 | 21 | 0.9 | 1.7 | 0.00 | 0.00 | 0.00 | ||
| 20260509001044 | 52 | 1 | 2.6 | 3.5 | 0.00 | 0.00 | 0.00 | ||
| 20260509000634 | 52 | 359 | 1.7 | 4.3 | 0.00 | 0.00 | 0.00 | ||
| 20260509000233 | 52 | 8 | 3.5 | 7.0 | 0.00 | 0.00 | 0.00 | ||
| 20260508235831 | 52 | 0 | 2.6 | 7.0 | 0.00 | 0.00 | 0.00 | ||
| 20260508235430 | 52 | 2 | 3.5 | 5.2 | 0.00 | 0.00 | 0.00 | ||
| 20260508235026 | 52 | 2 | 3.5 | 6.1 | 0.00 | 0.00 | 0.00 | ||
| 20260508234625 | 52 | 12 | 2.6 | 5.2 | 0.00 | 0.00 | 0.00 | ||
| 20260508234223 | 52 | 18 | 3.5 | 7.0 | 0.00 | 0.00 | 0.00 | ||
| 20260508233822 | 52 | 18 | 3.5 | 7.0 | 0.00 | 0.00 | 0.00 | ||
| 20260508233420 | 52 | 11 | 1.7 | 4.3 | 0.00 | 0.00 | 0.00 | ||
| 20260508233018 | 52 | 0 | 2.6 | 4.3 | 0.00 | 0.00 | 0.00 | ||
| 20260508232610 | 52 | 358 | 1.7 | 3.5 | 0.00 | 0.00 | 0.00 | ||
| 20260508232208 | 52 | 356 | 1.7 | 4.3 | 0.00 | 0.00 | 0.00 | ||
| 20260508231806 | 53 | 345 | 1.7 | 4.3 | 0.00 | 0.00 | 0.00 | ||
| 20260508231405 | 52 | 357 | 2.6 | 5.2 | 0.00 | 0.00 | 0.00 | ||
| 20260508231003 | 52 | 0 | 2.6 | 6.1 | 0.00 | 0.00 | 0.00 | ||
| 20260508230602 | 53 | 355 | 2.6 | 5.2 | 0.00 | 0.00 | 0.00 | ||
| 20260508230200 | 53 | 358 | 2.6 | 4.3 | 0.00 | 0.00 | 0.00 | ||
| 20260508225758 | 53 | 353 | 1.7 | 4.3 | 0.00 | 0.00 | 0.00 | ||
| 20260508225357 | 53 | 2 | 2.6 | 5.2 | 0.00 | 0.00 | 0.00 | ||
| 20260508224955 | 53 | 0 | 1.7 | 4.3 | 0.00 | 0.00 | 0.00 | ||
| 20260508224547 | 53 | 7 | 2.6 | 4.3 | 0.00 | 0.00 | 0.00 | ||
| 20260508224144 | 53 | 4 | 3.5 | 7.0 | 0.00 | 0.00 | 0.00 | ||
| 20260508223743 | 53 | 16 | 1.7 | 5.2 | 0.00 | 0.00 | 0.00 | ||
| 20260508223342 | 53 | 346 | 0.9 | 3.5 | 0.00 | 0.00 | 0.00 | ||
| 20260508222941 | 53 | 7 | 2.6 | 5.2 | 0.00 | 0.00 | 0.00 | ||
| 20260508222538 | 53 | 14 | 2.6 | 5.2 | 0.00 | 0.00 | 0.00 | ||
| 20260508222136 | 53 | 5 | 2.6 | 4.3 | 0.00 | 0.00 | 0.00 | ||
| 20260508221735 | 53 | 2 | 1.7 | 4.3 | 0.00 | 0.00 | 0.00 | ||
| 20260508220931 | 54 | 1 | 2.6 | 6.1 | 0.00 | 0.00 | 0.00 | ||
| 20260508220523 | 54 | 0 | 0.9 | 3.5 | 0.00 | 0.00 | 0.00 | ||
| 20260508220121 | 54 | 0 | 0.0 | 1.7 | 0.00 | 0.00 | 0.00 | ||
| 20260508215720 | 54 | 0 | 0.9 | 1.7 | 0.00 | 0.00 | 0.00 | ||
| 20260508215319 | 54 | 0 | 0.9 | 2.6 | 0.00 | 0.00 | 0.00 | ||
| 20260508214916 | 54 | 0 | 0.0 | 1.7 | 0.00 | 0.00 | 0.00 | ||
| 20260508214515 | 54 | 0 | 0.0 | 0.9 | 0.00 | 0.00 | 0.00 | ||
| 20260508214114 | 54 | 0 | 0.0 | 1.7 | 0.00 | 0.00 | 0.00 | ||
| 20260508213713 | 54 | 0 | 0.0 | 0.0 | 0.00 | 0.00 | 0.00 | ||
| 20260508213310 | 54 | 0 | 0.0 | 0.0 | 0.00 | 0.00 | 0.00 | ||
| 20260508212909 | 54 | 0 | 0.0 | 0.9 | 0.00 | 0.00 | 0.00 | ||
| 20260508212501 | 54 | 0 | 0.9 | 2.6 | 0.00 | 0.00 | 0.00 | ||
| 20260508212059 | 54 | 2 | 1.7 | 3.5 | 0.00 | 0.00 | 0.00 | ||
| 20260508211657 | 54 | 21 | 1.7 | 2.6 | 0.00 | 0.00 | 0.00 | ||
| 20260508211256 | 54 | 21 | 1.7 | 2.6 | 0.00 | 0.00 | 0.00 | ||
| 20260508210854 | 54 | 21 | 0.9 | 2.6 | 0.00 | 0.00 | 0.00 | ||
| 20260508210453 | 54 | 21 | 0.9 | 1.7 | 0.00 | 0.00 | 0.00 | ||
| 20260508210050 | 54 | 21 | 1.7 | 2.6 | 0.00 | 0.00 | 0.00 | ||
| 20260508205248 | 54 | 21 | 0.9 | 1.7 | 0.00 | 0.00 | 0.00 | ||
| 20260508204846 | 54 | 21 | 1.7 | 1.7 | 0.00 | 0.00 | 0.00 | ||
| 20260508204438 | 54 | 34 | 2.6 | 3.5 | 0.00 | 0.00 | 0.00 | ||
| 20260508204035 | 54 | 45 | 1.7 | 3.5 | 0.00 | 0.00 | 0.00 | ||
| 20260508203634 | 54 | 45 | 1.7 | 4.3 | 0.00 | 0.00 | 0.00 | ||
| 20260508203233 | 54 | 45 | 0.9 | 2.6 | 0.00 | 0.00 | 0.00 | ||
| 20260508202831 | 54 | 45 | 0.9 | 1.7 | 0.00 | 0.00 | 0.00 | ||
| 20260508202429 | 54 | 45 | 0.9 | 2.6 | 0.00 | 0.00 | 0.00 | ||
| 20260508202027 | 54 | 45 | 0.9 | 1.7 | 0.00 | 0.00 | 0.00 | ||
| 20260508201626 | 55 | 45 | 0.9 | 1.7 | 0.00 | 0.00 | 0.00 | ||
| 20260508201225 | 55 | 45 | 0.0 | 0.9 | 0.00 | 0.00 | 0.00 | ||
| 20260508200822 | 54 | 45 | 0.0 | 0.0 | 0.00 | 0.00 | 0.00 | ||
| 20260508200414 | 54 | 45 | 0.9 | 1.7 | 0.00 | 0.00 | 0.00 | ||
| 20260508200012 | 54 | 45 | 0.0 | 0.0 | 0.00 | 0.00 | 0.00 | ||
| 20260508195611 | 54 | 45 | 1.7 | 3.5 | 0.00 | 0.00 | 0.00 | ||
| 20260508195209 | 54 | 45 | 0.0 | 0.0 | 0.00 | 0.00 | 0.00 | ||
| 20260508194807 | 54 | 45 | 0.0 | 0.0 | 0.00 | 0.00 | 0.00 | ||
| 20260508194406 | 54 | 45 | 0.0 | 1.7 | 0.00 | 0.00 | 0.00 | ||
| 20260508194004 | 55 | 45 | 0.9 | 2.6 | 0.00 | 0.00 | 0.00 | ||
| 20260508193603 | 55 | 45 | 1.7 | 3.5 | 0.00 | 0.00 | 0.00 | ||
| 20260508192759 | 54 | 45 | 0.9 | 3.5 | 0.00 | 0.00 | 0.00 | ||
| 20260508192351 | 54 | 45 | 0.9 | 2.6 | 0.00 | 0.00 | 0.00 | ||
| 20260508191949 | 54 | 31 | 1.7 | 4.3 | 0.00 | 0.00 | 0.00 | ||
| 20260508191146 | 54 | 21 | 2.6 | 4.3 | 0.00 | 0.00 | 0.00 | ||
| 20260508190744 | 55 | 14 | 2.6 | 3.5 | 0.00 | 0.00 | 0.00 | ||
| 20260508190343 | 55 | 0 | 1.7 | 4.3 | 0.00 | 0.00 | 0.00 | ||
| 20260508185940 | 55 | 0 | 0.9 | 3.5 | 0.00 | 0.00 | 0.00 | ||
| 20260508185539 | 55 | 0 | 1.7 | 3.5 | 0.00 | 0.00 | 0.00 | ||
| 20260508185138 | 55 | 14 | 0.9 | 3.5 | 0.00 | 0.00 | 0.00 | ||
| 20260508184736 | 55 | 13 | 1.7 | 3.5 | 0.00 | 0.00 | 0.00 | ||
| 20260508184327 | 55 | 10 | 1.7 | 3.5 | 0.00 | 0.00 | 0.00 | ||
| 20260508183925 | 55 | 0 | 0.0 | 0.0 | 0.00 | 0.00 | 0.00 | ||
| 20260508183524 | 55 | 0 | 1.7 | 3.5 | 0.00 | 0.00 | 0.00 | ||
| 20260508183123 | 55 | 21 | 0.9 | 2.6 | 0.00 | 0.00 | 0.00 | ||
| 20260508182721 | 55 | 21 | 0.9 | 2.6 | 0.00 | 0.00 | 0.00 | ||
| 20260508182319 | 55 | 41 | 3.5 | 5.2 | 0.00 | 0.00 | 0.00 | ||
| 20260508181917 | 55 | 45 | 0.9 | 2.6 | 0.00 | 0.00 | 0.00 | ||
| 20260508181516 | 55 | 45 | 0.0 | 0.0 | 0.00 | 0.00 | 0.00 | ||
| 20260508181115 | 55 | 45 | 0.9 | 3.5 | 0.00 | 0.00 | 0.00 | ||
| 20260508180712 | 55 | 45 | 0.9 | 3.5 | 0.00 | 0.00 | 0.00 | ||
| 20260508180304 | 56 | 45 | 1.7 | 3.5 | 0.00 | 0.00 | 0.00 | ||
| 20260508175902 | 56 | 45 | 2.6 | 3.5 | 0.00 | 0.00 | 0.00 | ||
| 20260508175501 | 56 | 67 | 0.9 | 3.5 | 0.00 | 0.00 | 0.00 | ||
| 20260508175059 | 55 | 67 | 1.7 | 3.5 | 0.00 | 0.00 | 0.00 | ||
| 20260508174658 | 55 | 67 | 1.7 | 4.3 | 0.00 | 0.00 | 0.00 | ||
| 20260508174257 | 56 | 67 | 1.7 | 3.5 | 0.00 | 0.00 | 0.00 | ||
| 20260508173855 | 56 | 64 | 0.9 | 2.6 | 0.00 | 0.00 | 0.00 | ||
| 20260508173453 | 56 | 45 | 3.5 | 5.2 | 0.00 | 0.00 | 0.00 | ||
| 20260508173052 | 56 | 45 | 2.6 | 5.2 | 0.00 | 0.00 | 0.00 | ||
| 20260508172650 | 56 | 45 | 1.7 | 4.3 | 0.00 | 0.00 | 0.00 | ||
| 20260508172242 | 56 | 45 | 1.7 | 4.3 | 0.00 | 0.00 | 0.00 | ||
| 20260508171840 | 56 | 45 | 4.3 | 6.1 | 0.00 | 0.00 | 0.00 | ||
| 20260508171438 | 57 | 45 | 1.7 | 2.6 | 0.00 | 0.00 | 0.00 | ||
| 20260508171037 | 57 | 45 | 0.9 | 1.7 | 0.00 | 0.00 | 0.00 | ||
| 20260508170635 | 57 | 45 | 2.6 | 4.3 | 0.00 | 0.00 | 0.00 | ||
| 20260508170234 | 57 | 18 | 1.7 | 4.3 | 0.00 | 0.00 | 0.00 | ||
| 20260508165831 | 57 | 18 | 3.5 | 5.2 | 0.00 | 0.00 | 0.00 | ||
| 20260508165430 | 57 | 16 | 3.5 | 7.0 | 0.00 | 0.00 | 0.00 | ||
| 20260508165029 | 57 | 24 | 4.3 | 6.1 | 0.00 | 0.00 | 0.00 | ||
| 20260508164627 | 57 | 13 | 2.6 | 6.1 | 0.00 | 0.00 | 0.00 | ||
| 20260508164218 | 57 | 41 | 1.7 | 4.3 | 0.00 | 0.00 | 0.00 | ||
| 20260508163816 | 57 | 12 | 2.6 | 7.8 | 0.00 | 0.00 | 0.00 | ||
| 20260508163415 | 57 | 19 | 5.2 | 7.8 | 0.00 | 0.00 | 0.00 | ||
| 20260508163014 | 57 | 19 | 5.2 | 8.7 | 0.00 | 0.00 | 0.00 | ||
| 20260508162610 | 57 | 1 | 4.3 | 7.0 | 0.00 | 0.00 | 0.00 | ||
| 20260508162209 | 58 | 3 | 3.5 | 7.0 | 0.00 | 0.00 | 0.00 | ||
| 20260508161806 | 58 | 8 | 2.6 | 6.1 | 0.00 | 0.00 | 0.00 | ||
| 20260508161405 | 58 | 350 | 2.6 | 4.3 | 0.00 | 0.00 | 0.00 | ||
| 20260508161004 | 58 | 2 | 2.6 | 6.1 | 0.00 | 0.00 | 0.00 | ||
| 20260508160601 | 58 | 343 | 3.5 | 6.1 | 0.00 | 0.00 | 0.00 | ||
| 20260508160153 | 58 | 14 | 1.7 | 6.1 | 0.00 | 0.00 | 0.00 | ||
| 20260508155752 | 58 | 21 | 2.6 | 5.2 | 0.00 | 0.00 | 0.00 | ||
| 20260508155351 | 58 | 24 | 3.5 | 7.0 | 0.00 | 0.00 | 0.00 | ||
| 20260508154948 | 57 | 28 | 4.3 | 7.0 | 0.00 | 0.00 | 0.00 | ||
| 20260508154547 | 58 | 16 | 3.5 | 7.8 | 0.00 | 0.00 | 0.00 | ||
| 20260508154146 | 58 | 25 | 4.3 | 7.0 | 0.00 | 0.00 | 0.00 | ||
| 20260508153744 | 58 | 24 | 4.3 | 7.8 | 0.00 | 0.00 | 0.00 | ||
| 20260508153342 | 58 | 30 | 2.6 | 5.2 | 0.00 | 0.00 | 0.00 | ||
| 20260508152539 | 59 | 30 | 4.3 | 8.7 | 0.00 | 0.00 | 0.00 | ||
| 20260508152131 | 59 | 24 | 4.3 | 9.6 | 0.00 | 0.00 | 0.00 | ||
| 20260508151728 | 59 | 36 | 2.6 | 5.2 | 0.00 | 0.00 | 0.00 | ||
| 20260508151327 | 59 | 32 | 4.3 | 7.0 | 0.00 | 0.00 | 0.00 | ||
| 20260508150926 | 59 | 30 | 5.2 | 8.7 | 0.00 | 0.00 | 0.00 | ||
| 20260508150524 | 59 | 24 | 4.3 | 7.8 | 0.00 | 0.00 | 0.00 | ||
| 20260508150123 | 59 | 1 | 4.3 | 6.1 | 0.00 | 0.00 | 0.00 | ||
| 20260508145720 | 60 | 29 | 4.3 | 8.7 | 0.00 | 0.00 | 0.00 | ||
| 20260508145319 | 60 | 21 | 6.1 | 7.8 | 0.00 | 0.00 | 0.00 | ||
| 20260508144918 | 61 | 16 | 3.5 | 6.1 | 0.00 | 0.00 | 0.00 | ||
| 20260508144516 | 61 | 341 | 3.5 | 7.8 | 0.00 | 0.00 | 0.00 | ||
| 20260508144107 | 60 | 0 | 4.3 | 7.0 | 0.00 | 0.00 | 0.00 | ||
| 20260508143705 | 62 | 354 | 3.5 | 4.3 | 0.00 | 0.00 | 0.00 | ||
| 20260508143304 | 61 | 343 | 3.5 | 7.0 | 0.00 | 0.00 | 0.00 | ||
| 20260508142903 | 60 | 359 | 3.5 | 7.8 | 0.00 | 0.00 | 0.00 | ||
| 20260508142500 | 59 | 338 | 3.5 | 7.8 | 0.00 | 0.00 | 0.00 | ||
| 20260508142100 | 59 | 326 | 4.3 | 7.8 | 0.00 | 0.00 | 0.00 | ||
| 20260508141658 | 59 | 356 | 1.7 | 3.5 | 0.00 | 0.00 | 0.00 | ||
| 20260508141257 | 59 | 348 | 2.6 | 4.3 | 0.00 | 0.00 | 0.00 | ||
| 20260508140855 | 60 | 339 | 1.7 | 3.5 | 0.00 | 0.00 | 0.00 | ||
| 20260508140453 | 60 | 312 | 2.6 | 4.3 | 0.00 | 0.00 | 0.00 | ||
| 20260508140045 | 60 | 0 | 2.6 | 4.3 | 0.00 | 0.00 | 0.00 | ||
| 20260508135643 | 61 | 338 | 1.7 | 3.5 | 0.00 | 0.00 | 0.00 | ||
| 20260508135242 | 61 | 329 | 1.7 | 3.5 | 0.00 | 0.00 | 0.00 | ||
| 20260508134840 | 61 | 347 | 1.7 | 3.5 | 0.00 | 0.00 | 0.00 | ||
| 20260508134438 | 61 | 8 | 3.5 | 7.0 | 0.00 | 0.00 | 0.00 | ||
| 20260508134037 | 61 | 351 | 3.5 | 7.0 | 0.00 | 0.00 | 0.00 | ||
| 20260508133635 | 61 | 7 | 2.6 | 5.2 | 0.00 | 0.00 | 0.00 | ||
| 20260508133233 | 61 | 4 | 3.5 | 5.2 | 0.00 | 0.00 | 0.00 | ||
| 20260508132832 | 61 | 4 | 1.7 | 4.3 | 0.00 | 0.00 | 0.00 | ||
| 20260508132430 | 61 | 340 | 1.7 | 3.5 | 0.00 | 0.00 | 0.00 | ||
| 20260508132022 | 60 | 8 | 2.6 | 5.2 | 0.00 | 0.00 | 0.00 | ||
| 20260508131619 | 60 | 354 | 0.9 | 2.6 | 0.00 | 0.00 | 0.00 | ||
| 20260508131218 | 61 | 338 | 0.0 | 1.7 | 0.00 | 0.00 | 0.00 | ||
| 20260508130817 | 60 | 338 | 0.9 | 1.7 | 0.00 | 0.00 | 0.00 | ||
| 20260508130415 | 60 | 332 | 1.7 | 3.5 | 0.00 | 0.00 | 0.00 | ||
| 20260508130013 | 59 | 353 | 1.7 | 4.3 | 0.00 | 0.00 | 0.00 | ||
| 20260508125611 | 59 | 352 | 2.6 | 3.5 | 0.00 | 0.00 | 0.00 | ||
| 20260508125210 | 59 | 339 | 1.7 | 3.5 | 0.00 | 0.00 | 0.00 | ||
| 20260508124809 | 59 | 323 | 1.7 | 5.2 | 0.00 | 0.00 | 0.00 | ||
| 20260508124407 | 60 | 293 | 1.7 | 5.2 | 0.00 | 0.00 | 0.00 | ||
| 20260508123958 | 59 | 340 | 0.9 | 4.3 | 0.00 | 0.00 | 0.00 | ||
| 20260508123556 | 60 | 0 | 0.9 | 2.6 | 0.00 | 0.00 | 0.00 | ||
| 20260508123155 | 57 | 0 | 1.7 | 3.5 | 0.00 | 0.00 | 0.00 | ||
| 20260508122754 | 57 | 344 | 1.7 | 4.3 | 0.00 | 0.00 | 0.00 | ||
| 20260508122351 | 59 | 3 | 1.7 | 4.3 | 0.00 | 0.00 | 0.00 | ||
| 20260508121950 | 58 | 353 | 1.7 | 5.2 | 0.00 | 0.00 | 0.00 | ||
| 20260508121548 | 57 | 292 | 1.7 | 3.5 | 0.00 | 0.00 | 0.00 | ||
| 20260508121147 | 58 | 292 | 1.7 | 3.5 | 0.00 | 0.00 | 0.00 | ||
| 20260508120342 | 57 | 319 | 1.7 | 3.5 | 0.00 | 0.00 | 0.00 | ||
| 20260508115935 | 56 | 338 | 1.7 | 3.5 | 0.00 | 0.00 | 0.00 | ||
| 20260508115532 | 56 | 295 | 1.7 | 3.5 | 0.00 | 0.00 | 0.00 | ||
| 20260508115130 | 57 | 303 | 3.5 | 5.2 | 0.00 | 0.00 | 0.00 | ||
| 20260508114729 | 57 | 333 | 2.6 | 5.2 | 0.00 | 0.00 | 0.00 | ||
| 20260508114327 | 57 | 338 | 1.7 | 3.5 | 0.00 | 0.00 | 0.00 | ||
| 20260508113926 | 56 | 315 | 1.7 | 3.5 | 0.00 | 0.00 | 0.00 | ||
| 20260508113524 | 56 | 318 | 1.7 | 3.5 | 0.00 | 0.00 | 0.00 | ||
| 20260508113122 | 56 | 334 | 2.6 | 4.3 | 0.00 | 0.00 | 0.00 | ||
| 20260508112721 | 56 | 331 | 2.6 | 6.1 | 0.00 | 0.00 | 0.00 | ||
| 20260508112319 | 57 | 309 | 2.6 | 5.2 | 0.00 | 0.00 | 0.00 | ||
| 20260508111508 | 56 | 303 | 3.5 | 6.1 | 0.00 | 0.00 | 0.00 | ||
| 20260508111107 | 56 | 333 | 3.5 | 5.2 | 0.00 | 0.00 | 0.00 | ||
| 20260508110706 | 57 | 315 | 2.6 | 5.2 | 0.00 | 0.00 | 0.00 | ||
| 20260508110304 | 57 | 328 | 0.9 | 5.2 | 0.00 | 0.00 | 0.00 | ||
| 20260508105902 | 56 | 338 | 1.7 | 2.6 | 0.00 | 0.00 | 0.00 | ||
| 20260508105500 | 56 | 338 | 0.9 | 1.7 | 0.00 | 0.00 | 0.00 | ||
| 20260508105059 | 57 | 335 | 1.7 | 3.5 | 0.00 | 0.00 | 0.00 | ||
| 20260508104658 | 57 | 327 | 3.5 | 5.2 | 0.00 | 0.00 | 0.00 | ||
| 20260508104255 | 56 | 342 | 0.9 | 2.6 | 0.00 | 0.00 | 0.00 | ||
| 20260508103847 | 57 | 351 | 1.7 | 4.3 | 0.00 | 0.00 | 0.00 | ||
| 20260508103445 | 58 | 296 | 0.9 | 2.6 | 0.00 | 0.00 | 0.00 | ||
| 20260508102644 | 57 | 333 | 1.7 | 4.3 | 0.00 | 0.00 | 0.00 | ||
| 20260508102241 | 56 | 307 | 2.6 | 4.3 | 0.00 | 0.00 | 0.00 | ||
| 20260508101840 | 56 | 346 | 2.6 | 4.3 | 0.00 | 0.00 | 0.00 | ||
| 20260508101438 | 55 | 338 | 1.7 | 3.5 | 0.00 | 0.00 | 0.00 | ||
| 20260508101037 | 55 | 332 | 1.7 | 4.3 | 0.00 | 0.00 | 0.00 | ||
| 20260508100635 | 55 | 292 | 2.6 | 3.5 | 0.00 | 0.00 | 0.00 | ||
| 20260508100233 | 55 | 306 | 2.6 | 5.2 | 0.00 | 0.00 | 0.00 | ||
| 20260508095825 | 56 | 292 | 2.6 | 5.2 | 0.00 | 0.00 | 0.00 | ||
| 20260508095423 | 55 | 296 | 2.6 | 4.3 | 0.00 | 0.00 | 0.00 | ||
| 20260508095021 | 55 | 315 | 0.9 | 1.7 | 0.00 | 0.00 | 0.00 | ||
| 20260508094619 | 54 | 315 | 1.7 | 3.5 | 0.00 | 0.00 | 0.00 | ||
| 20260508094218 | 55 | 338 | 0.0 | 1.7 | 0.00 | 0.00 | 0.00 | ||
| 20260508093817 | 55 | 306 | 2.6 | 4.3 | 0.00 | 0.00 | 0.00 | ||
| 20260508093414 | 54 | 323 | 2.6 | 5.2 | 0.00 | 0.00 | 0.00 | ||
| 20260508093013 | 56 | 353 | 0.9 | 4.3 | 0.00 | 0.00 | 0.00 | ||
| 20260508092612 | 54 | 353 | 1.7 | 5.2 | 0.00 | 0.00 | 0.00 | ||
| 20260508092210 | 53 | 335 | 1.7 | 5.2 | 0.00 | 0.00 | 0.00 |